RH
103 102 99 99 96 93 90 83 77 74 77 82 91 104 106 108 108 108 97 70 52 51 60 69 67 68 72 71 73 70 68 68 66 69 72 71 71 71 74 77 75 73 71 68 66 66 71 80 80 80 77 71 74 71 78 89 79 73 78 82 93 89 76 74 72 68 67 63 62 62 60 57 54 48 46 50 46 41 35 35 35 36 61 80 76 71 63 51 42 36 32 29 26 23 19 16 16
101 101 100 101 100 99 99 94 85 79 80 80 91 107 109 110 109 99 94 77 55 60 74 78 79 77 74 72 71 67 62 60 60 66 71 68 69 74 77 76 75 74 72 69 69 70 76 83 80 76 70 67 71 73 85 92 83 85 89 90 88 79 75 79 73 68 67 65 63 61 61 57 50 47 50 52 43 38 33 37 53 63 78 84 79 76 68 56 45 39 35 31 29 27 22 19 17
100 100 100 100 101 102 102 100 96 96 97 94 99 107 108 106 94 80 85 84 67 67 76 78 84 82 74 69 64 60 55 55 61 67 69 69 74 80 82 80 78 77 76 74 73 72 74 76 74 70 69 72 75 80 93 96 93 96 91 84 76 73 79 79 72 70 71 68 64 63 62 53 48 52 55 51 43 37 33 49 80 93 94 87 79 76 72 63 50 43 38 33 31 28 24 19 18
102 101 101 100 100 100 101 102 102 105 106 104 103 104 106 95 79 75 80 86 82 74 74 81 93 91 84 77 65 61 61 64 71 74 72 75 82 85 86 84 82 81 79 76 75 74 74 73 70 70 73 78 83 92 101 100 96 90 80 75 74 79 81 76 75 76 74 69 67 67 59 50 54 58 57 52 45 38 35 59 93 101 96 86 76 72 73 68 55 47 40 34 32 29 25 19 17
101 103 102 102 101 99 100 100 102 103 103 103 101 102 102 88 84 89 88 94 99 92 90 95 102 99 95 89 79 79 80 79 82 80 78 82 87 88 87 85 83 82 79 78 78 77 76 73 72 75 78 83 91 99 99 91 84 76 73 78 82 84 78 76 79 78 72 70 70 66 54 53 63 61 58 55 45 38 37 64 95 101 95 84 72 68 73 71 60 51 42 36 33 30 28 21 16
100 104 103 104 103 100 100 100 101 100 101 102 99 102 97 89 93 99 99 103 105 103 103 102 101 102 101 97 94 95 94 95 94 86 82 85 87 86 84 83 82 79 78 79 80 79 76 74 75 79 81 84 90 92 89 81 76 74 80 84 82 78 78 80 78 74 71 73 73 61 52 61 68 61 58 53 42 38 40 66 95 99 91 80 68 65 72 73 64 55 46 39 35 34 33 26 19
99 102 101 104 105 103 103 102 102 102 103 100 97 100 98 96 98 100 103 105 104 103 104 103 104 105 103 101 103 102 104 105 99 89 87 88 88 86 83 82 81 78 79 80 82 79 76 76 78 81 81 82 83 84 84 81 78 78 81 79 74 76 85 82 73 72 72 73 70 57 53 65 70 61 56 48 40 41 41 61 91 95 85 80 71 64 71 74 68 59 49 42 38 36 33 29 22
88 95 98 102 102 102 103 102 103 104 105 100 95 98 98 100 100 100 102 103 104 103 104 105 106 106 103 105 108 106 106 105 97 91 90 91 90 88 86 83 81 83 84 82 81 78 76 78 81 82 80 80 80 81 83 80 77 76 74 72 73 83 90 77 69 74 73 70 65 57 56 68 73 62 54 46 41 43 39 47 76 90 80 79 79 73 75 77 73 64 55 47 42 37 29 25 21
59 71 81 88 92 95 99 102 104 104 104 98 94 97 98 100 100 101 101 103 104 103 105 105 104 104 102 104 106 105 104 104 99 93 92 94 93 91 89 86 85 89 88 84 80 78 79 81 82 81 79 80 79 80 81 78 76 74 72 72 75 81 80 70 68 75 74 67 60 58 59 71 76 64 55 46 42 45 41 36 57 84 79 73 82 84 85 84 79 70 63 54 45 39 27 20 19
40 46 52 60 68 76 84 94 99 101 101 97 96 98 100 99 99 100 100 103 103 103 104 103 102 102 102 102 105 105 104 105 101 95 94 95 94 92 90 88 88 88 86 82 81 81 83 83 82 80 80 81 80 79 79 78 76 75 73 72 73 72 70 69 72 76 74 64 58 61 64 74 77 65 56 46 44 47 46 37 46 80 83 69 76 90 94 92 87 76 68 61 49 40 28 22 24
39 39 39 43 48 58 68 77 83 88 90 92 94 96 98 96 94 95 97 101 102 104 104 101 101 101 103 105 107 107 105 104 95 90 91 91 92 90 88 87 85 85 83 81 82 84 85 84 82 81 81 82 84 82 79 79 75 74 73 71 72 73 74 77 80 77 69 62 62 64 65 73 72 62 55 48 47 47 47 40 42 74 90 78 74 88 99 98 94 86 77 66 53 43 31 26 31
44 43 42 43 46 52 60 65 68 72 78 81 83 83 84 84 84 84 86 90 94 98 99 97 98 100 106 106 106 105 104 101 89 85 86 88 90 88 88 88 86 84 81 81 84 87 87 86 83 82 83 84 85 80 77 78 75 74 72 72 78 81 82 84 80 72 66 65 66 65 65 68 65 60 55 50 49 47 47 43 39 57 77 83 79 82 95 102 99 92 87 74 57 49 37 29 34
42 45 46 48 52 56 60 63 63 65 69 69 67 68 70 71 73 73 74 77 81 84 84 83 87 95 101 103 104 102 102 98 88 88 89 90 90 89 89 88 85 82 82 85 87 90 89 89 87 84 83 82 79 75 76 77 75 75 74 78 86 88 87 85 77 71 70 68 66 65 66 66 62 59 55 52 50 48 48 45 40 42 49 62 70 78 90 102 103 97 94 82 63 54 45 33 34
32 39 46 52 57 64 69 69 67 65 63 56 53 52 54 58 60 63 67 71 74 75 73 72 78 87 92 96 100 99 98 96 92 94 96 95 93 94 94 90 86 84 88 90 91 93 92 92 91 85 82 80 76 75 77 75 77 81 82 86 92 91 89 87 81 77 75 71 66 65 66 65 61 57 54 54 52 49 49 45 40 40 38 39 46 65 88 101 104 102 99 88 70 59 52 41 35
22 28 38 50 60 69 74 71 68 65 61 54 50 48 48 50 52 56 62 67 71 70 68 69 73 81 88 94 100 101 97 95 96 97 98 96 96 98 95 90 87 88 93 94 94 93 92 94 91 85 80 80 79 78 75 74 83 87 83 86 93 95 94 95 90 84 80 74 69 65 66 64 60 58 55 56 55 50 49 44 39 39 37 37 33 47 86 107 104 102 101 92 77 63 58 50 39
18 19 26 40 57 69 72 68 64 64 62 58 55 52 51 52 52 56 60 67 73 70 69 70 72 82 93 98 102 102 96 94 96 95 95 94 94 94 90 87 86 89 92 92 92 91 92 93 89 84 80 79 79 78 75 77 86 83 78 85 92 92 94 98 95 90 85 75 68 67 66 63 61 59 58 57 57 52 47 42 40 39 37 42 41 47 84 109 106 101 100 97 84 68 63 59 48
17 17 20 31 48 60 61 58 58 62 63 62 60 56 54 55 55 59 63 71 77 76 75 75 78 88 98 100 100 98 93 92 93 92 91 91 90 89 87 86 87 87 87 87 88 90 93 91 86 81 78 78 78 79 81 82 82 79 84 93 89 86 91 97 97 92 83 73 69 69 65 62 62 61 61 60 58 54 48 41 38 38 36 39 48 63 88 103 106 104 101 102 92 74 65 64 58
17 17 19 26 36 42 41 42 48 57 62 64 63 60 58 58 59 62 67 76 81 80 80 82 86 92 95 97 96 93 90 90 91 91 90 88 88 87 87 87 87 87 86 87 89 90 92 89 84 79 80 86 86 87 88 84 81 83 93 96 88 87 95 100 99 92 81 75 71 68 64 63 64 63 64 63 60 55 49 43 38 35 33 34 48 70 90 98 104 107 106 103 93 81 68 65 68
17 18 19 22 26 26 25 28 38 50 59 65 66 64 63 63 64 67 72 80 81 82 85 88 91 91 92 93 92 89 88 90 91 91 90 88 87 87 89 89 88 88 88 90 91 90 89 87 82 79 86 94 94 90 87 85 85 89 93 94 90 90 99 102 98 93 85 76 70 67 65 65 66 68 68 66 62 57 50 45 38 34 30 30 45 72 90 94 99 104 108 106 93 85 75 69 74
18 19 21 21 20 18 18 22 30 40 49 56 59 61 64 66 69 73 78 80 79 83 88 90 91 88 88 89 88 88 88 90 91 91 91 89 88 89 89 88 87 87 89 90 90 88 86 83 79 80 87 93 91 86 84 85 85 85 88 94 96 96 104 104 99 97 86 73 70 69 66 66 69 71 71 69 63 58 52 47 41 34 29 25 34 66 89 90 96 102 105 110 100 88 83 80 80
17 19 21 20 18 17 17 18 21 27 33 39 44 51 58 65 70 75 80 80 76 82 86 86 87 84 84 86 85 86 88 90 91 91 91 89 89 89 85 85 86 87 90 91 90 89 86 83 81 81 84 87 87 86 83 81 82 85 91 98 101 106 108 107 106 97 81 74 74 70 67 68 71 73 73 71 67 62 55 48 42 33 29 25 23 49 86 93 93 102 104 108 106 92 85 88 88
17 19 20 18 17 18 17 17 17 19 22 27 32 38 47 57 66 72 77 78 75 77 82 81 81 80 80 83 84 87 89 90 90 90 90 88 87 86 83 84 86 87 89 90 90 89 87 85 84 83 85 88 89 88 81 78 85 89 94 100 103 107 107 107 106 91 81 81 77 71 69 70 72 72 72 74 72 66 57 47 40 32 27 26 20 30 73 100 97 100 106 106 108 102 90 90 95
18 19 19 16 17 18 17 17 17 17 18 20 23 27 35 45 56 63 69 74 70 69 75 75 76 78 78 81 83 87 89 88 88 87 86 85 84 84 84 85 84 83 85 85 85 86 86 87 87 85 87 93 92 85 78 77 85 88 95 104 106 106 105 105 96 87 90 86 77 73 70 73 73 68 71 80 78 68 57 45 36 31 26 26 24 20 44 87 104 102 103 105 109 108 99 93 98
18 19 18 16 17 16 16 17 17 17 17 17 18 20 25 32 41 50 58 65 63 62 66 69 73 77 79 81 82 85 86 86 84 82 83 83 83 85 85 86 84 83 85 84 84 85 85 85 85 83 85 90 85 77 74 78 85 91 99 107 109 108 106 103 91 91 98 87 78 76 73 76 70 64 74 83 79 67 53 43 35 30 28 25 26 22 23 49 86 103 103 100 103 106 103 98 102
19 19 18 17 17 17 16 17 18 18 18 17 17 17 19 23 30 38 46 53 53 54 57 62 69 74 78 79 80 80 80 81 80 78 79 79 80 82 83 84 84 85 86 85 84 84 84 82 81 81 83 82 78 78 81 88 91 92 99 105 107 107 105 101 95 98 99 87 83 79 76 77 66 65 80 84 77 64 49 41 36 30 28 26 25 26 23 24 49 86 100 93 92 100 102 100 104
21 21 19 17 17 17 17 17 17 17 17 18 17 17 18 20 23 28 35 40 44 46 48 52 59 66 71 74 76 76 75 75 74 74 74 75 77 78 80 81 82 84 85 85 83 82 81 79 78 80 82 80 82 88 86 90 92 84 93 106 105 102 102 101 99 101 100 93 87 81 79 74 65 71 84 83 73 59 47 40 36 31 28 27 25 23 26 23 26 54 82 87 87 94 100 101 102
24 23 20 18 18 17 17 17 17 18 18 18 19 19 19 19 21 24 27 31 35 36 37 40 47 55 61 66 69 70 70 69 68 69 70 71 72 74 75 77 79 81 83 83 81 79 77 75 75 76 79 80 84 88 82 84 91 82 85 103 104 97 101 103 100 103 105 100 91 83 80 72 68 78 86 80 70 56 46 42 36 33 29 25 27 25 24 24 23 33 57 82 95 97 96 100 102
26 25 22 20 19 18 18 18 17 18 19 20 21 21 21 22 24 25 25 26 27 27 29 31 36 43 50 56 61 62 61 62 64 66 67 68 69 70 72 72 75 76 77 78 76 75 73 72 72 72 74 76 78 80 78 81 91 87 81 97 106 99 100 105 105 107 107 103 93 84 80 74 73 81 86 80 69 56 48 45 39 34 29 26 25 23 24 26 25 31 52 85 105 103 97 98 101
26 25 24 22 20 19 18 18 18 18 19 20 21 23 24 26 27 28 26 24 23 23 24 25 28 33 39 45 51 53 52 54 58 62 63 65 66 67 68 68 70 71 72 73 72 71 70 70 69 69 70 71 73 72 73 75 84 88 80 88 103 101 99 103 105 105 106 103 90 81 80 79 77 80 86 84 72 59 52 48 42 35 30 28 23 33 62 71 60 60 78 99 106 103 99 97 101
25 25 25 24 22 21 21 21 20 20 20 21 21 23 26 27 28 29 27 25 24 23 22 22 25 28 32 36 40 43 44 46 52 55 58 60 62 63 64 66 67 68 69 69 69 68 67 67 66 66 67 67 68 68 69 73 80 87 79 79 95 103 100 101 103 102 103 99 83 77 81 81 78 80 87 89 77 64 57 50 43 37 31 29 23 38 78 94 91 95 98 100 99 103 101 89 92
23 23 24 24 23 23 24 23 23 23 23 23 23 24 26 26 26 27 27 25 24 24 24 23 24 25 28 32 34 34 34 38 44 49 51 53 55 58 60 63 65 66 67 66 66 66 65 65 64 64 65 65 66 65 67 73 78 80 77 78 91 103 102 100 102 103 103 93 77 76 81 81 81 83 90 93 83 69 60 52 43 36 31 30 25 28 45 59 78 98 102 101 97 100 103 90 84
22 22 23 24 24 25 25 24 25 25 25 26 26 27 28 26 23 23 24 23 22 23 23 23 24 25 27 29 29 29 29 32 38 41 43 45 49 53 57 59 62 64 65 65 65 65 65 65 65 64 65 65 65 65 66 70 72 71 74 81 94 104 101 101 103 101 99 86 75 79 82 85 86 87 94 96 88 74 62 53 44 40 32 28 29 27 27 29 44 63 83 100 100 97 101 98 89
21 22 23 24 25 26 25 25 25 26 26 26 27 29 30 26 22 21 21 21 21 21 21 22 23 25 27 27 28 28 30 31 33 35 36 39 46 50 52 54 58 62 64 65 65 66 66 65 66 66 67 67 66 68 67 67 67 70 82 92 98 104 101 102 104 96 91 83 78 86 87 89 92 91 96 99 90 73 62 54 47 42 33 40 57 56 43 29 22 28 45 73 97 103 100 100 97
24 24 25 24 25 25 25 25 26 26 25 25 27 29 29 25 21 20 21 21 21 21 21 21 22 24 26 27 28 31 32 31 30 31 33 37 44 46 47 50 54 58 62 65 65 66 66 67 68 68 69 69 69 69 69 68 67 72 93 105 101 103 102 102 104 96 91 88 84 90 90 90 97 96 98 102 89 70 61 55 54 54 52 70 90 82 70 58 40 28 23 40 82 107 100 100 102
32 29 27 26 25 24 24 24 25 25 25 26 26 26 27 24 21 20 21 21 22 22 21 21 21 23 25 26 30 32 31 31 31 32 33 37 41 42 45 48 50 53 58 62 63 64 65 66 68 70 71 73 73 73 72 72 70 73 92 107 103 101 102 101 104 100 94 91 86 88 90 93 101 101 100 99 82 67 63 62 74 85 86 95 98 87 81 78 67 53 34 24 53 97 104 98 103
37 33 30 28 25 23 23 22 23 24 24 25 25 26 26 23 22 22 22 22 22 22 21 21 21 22 25 27 29 30 31 33 33 33 34 38 40 42 44 45 46 49 54 58 59 60 61 63 66 70 73 75 77 78 78 77 76 78 87 98 100 102 103 100 103 103 97 96 93 92 95 98 105 103 97 89 76 70 67 75 96 100 97 101 100 97 93 86 81 74 62 38 32 73 104 99 98
39 38 35 31 27 26 25 24 23 22 22 23 24 25 25 23 23 22 22 22 22 22 22 22 23 24 25 27 27 27 29 30 30 31 34 37 39 40 40 41 44 47 52 54 56 56 57 61 65 71 75 76 77 76 76 76 77 82 92 101 101 101 102 101 104 104 101 102 101 104 106 103 106 103 92 82 76 76 71 81 102 97 91 98 99 99 98 95 93 85 80 68 49 60 93 104 99
41 42 40 36 33 30 28 26 24 22 22 23 24 24 24 23 23 23 22 21 21 22 22 24 25 25 26 27 26 25 27 27 28 29 30 33 35 36 37 41 45 48 51 53 54 56 58 63 69 75 78 77 75 72 69 70 72 76 87 102 105 100 99 102 105 103 102 103 101 108 109 102 103 98 88 81 78 80 72 74 96 100 94 97 98 100 100 96 94 92 88 79 72 69 77 96 104
42 43 42 41 40 37 32 28 26 24 24 25 25 23 23 23 22 22 22 21 21 21 22 23 23 24 25 26 25 25 26 26 27 27 28 29 30 32 35 39 45 48 51 54 56 58 62 69 77 82 85 83 78 72 67 65 66 66 72 86 93 90 88 90 92 92 96 101 101 105 106 102 102 95 87 82 77 78 72 66 80 91 88 89 95 95 95 94 89 92 96 81 70 74 76 81 96
45 46 45 46 47 43 39 34 29 27 27 27 25 23 22 21 21 21 21 21 21 21 21 21 21 22 23 23 24 24 25 26 28 29 29 30 32 34 35 39 44 47 47 51 56 63 71 80 87 91 93 92 87 79 73 66 62 61 61 64 67 69 72 76 79 83 90 99 102 105 106 104 102 96 90 86 79 77 74 66 67 75 82 87 89 81 75 83 88 89 101 95 67 59 71 72 79
48 55 56 55 51 48 45 40 34 30 29 28 25 24 22 21 21 20 21 21 21 21 21 21 21 21 21 22 23 23 25 27 29 31 31 33 34 34 34 37 41 41 42 49 58 70 82 88 92 96 97 95 90 82 74 65 58 54 53 54 57 63 69 71 76 86 97 101 101 104 106 104 101 98 96 94 87 82 78 69 68 83 93 87 78 72 61 62 75 80 90 106 90 59 56 64 70
44 58 70 68 58 52 47 42 38 36 34 31 27 25 23 22 22 21 22 21 22 22 22 22 22 21 22 22 23 24 25 27 29 31 32 32 33 33 33 36 38 39 40 47 59 72 80 82 84 86 85 81 76 71 66 59 54 53 54 57 62 66 71 72 72 81 91 90 88 99 105 100 100 101 99 101 96 90 85 75 72 83 84 73 62 60 54 48 57 67 70 87 101 88 63 54 63
35 57 83 82 67 56 49 44 42 42 41 37 32 29 26 24 23 22 21 21 22 22 22 23 22 23 23 22 23 24 26 29 30 29 30 30 30 29 28 29 31 33 35 40 49 59 63 66 67 64 61 60 60 58 57 56 54 55 56 57 60 61 64 66 63 62 66 66 71 92 104 100 102 104 100 103 102 93 86 79 74 71 63 57 54 49 46 41 41 49 55 58 71 93 90 60 55
35 68 98 95 79 65 56 49 44 45 44 40 37 35 31 28 26 24 23 22 22 22 24 24 24 25 24 25 26 27 30 33 30 27 28 26 25 26 26 28 29 29 31 34 37 43 50 53 52 49 48 48 50 52 53 54 53 52 51 49 49 49 50 50 49 47 49 51 59 80 97 101 104 106 103 102 99 90 84 81 75 69 61 55 54 51 45 41 35 32 36 38 33 54 89 80 58
46 85 106 100 88 73 64 57 49 47 44 41 41 39 34 33 31 29 27 26 26 27 29 28 28 27 27 29 30 31 34 33 28 25 23 22 23 23 21 22 24 27 29 31 35 39 43 46 44 42 42 43 44 47 47 46 46 44 42 42 44 49 52 49 45 42 39 40 45 59 81 97 98 100 102 97 92 86 83 84 80 73 69 63 58 55 48 41 36 30 23 27 25 19 56 88 72
54 81 92 93 88 71 62 60 55 50 44 43 44 40 37 37 35 32 31 31 32 34 35 32 31 30 30 32 32 34 34 31 28 24 22 23 21 21 29 35 35 34 32 30 34 39 39 38 39 38 38 40 41 43 44 41 41 40 44 55 67 76 79 74 68 64 59 53 46 46 60 76 81 88 98 97 93 91 86 88 90 83 74 69 63 56 50 43 34 32 25 22 29 16 26 77 88
55 62 65 75 75 58 49 51 54 50 47 51 50 44 41 38 36 35 34 35 36 37 37 35 34 33 33 34 34 35 33 32 30 26 23 22 24 44 67 77 80 76 67 52 38 35 37 35 36 36 36 38 43 46 46 44 41 45 63 83 91 95 95 87 80 77 74 68 59 55 59 66 71 81 94 97 94 96 97 99 100 92 81 73 69 59 50 45 32 28 29 21 26 24 16 55 96
52 49 47 51 50 41 33 35 39 39 51 66 63 51 45 39 38 37 36 39 41 41 40 37 36 35 36 35 34 34 34 33 31 27 26 23 41 80 93 88 92 97 100 91 59 39 39 36 34 35 35 40 50 50 45 44 44 52 74 89 86 87 90 81 71 66 61 55 50 51 57 66 74 81 88 92 92 95 99 105 104 96 88 79 73 66 51 42 33 25 28 24 22 28 19 37 92
51 48 45 41 37 33 27 27 28 32 57 76 67 54 46 43 45 42 41 43 44 47 45 42 40 38 39 38 37 38 36 36 34 32 32 26 40 77 94 91 88 90 106 107 76 49 41 37 35 36 37 41 47 47 42 40 42 51 67 77 76 78 84 79 70 63 56 49 43 40 41 49 60 71 78 80 82 89 93 98 102 95 87 80 73 66 51 38 33 25 26 28 23 25 23 37 85
55 51 49 46 42 36 30 30 28 31 53 65 55 49 46 46 50 49 50 51 49 51 50 47 46 41 41 41 41 42 38 38 37 35 37 33 30 42 63 86 97 100 106 93 67 50 40 34 35 36 38 42 46 49 48 48 54 67 77 83 84 83 83 81 74 68 61 56 50 43 38 39 46 56 67 71 77 88 95 99 101 90 79 78 72 61 49 36 31 28 27 31 29 24 26 48 78
64 63 62 60 55 50 45 43 40 41 55 59 47 43 41 44 52 55 61 62 56 55 54 51 50 45 44 46 47 47 43 41 40 38 37 34 33 31 33 60 92 100 86 63 48 44 35 33 43 51 58 66 74 75 74 77 86 94 94 92 92 87 82 78 72 70 66 62 57 48 41 41 47 56 64 74 85 94 102 104 98 87 77 76 70 57 46 36 29 28 30 36 35 23 30 59 78
68 68 65 60 60 62 60 55 53 54 63 62 48 41 41 46 55 59 65 70 67 61 57 54 52 49 48 51 53 53 49 45 41 40 38 34 47 59 46 42 56 59 49 41 39 36 33 39 55 69 78 87 96 98 98 100 101 100 97 95 93 86 79 75 70 68 64 62 62 54 47 45 52 66 74 86 99 101 105 106 92 80 78 75 67 55 44 35 29 28 33 42 35 22 42 78 92
73 67 55 54 67 73 66 59 57 58 60 57 49 46 49 52 56 56 59 69 73 68 62 58 55 53 55 59 62 61 54 48 43 40 38 36 56 86 85 59 40 34 36 38 38 37 38 45 62 78 86 93 103 105 103 100 97 96 96 92 87 80 76 72 67 65 63 62 62 57 54 54 58 73 86 96 105 104 102 100 85 77 78 73 63 53 42 34 29 29 38 42 29 29 65 100 106
80 71 61 69 80 73 60 54 53 53 53 53 49 51 56 58 57 58 61 69 76 76 70 63 60 58 59 64 69 71 62 49 43 40 38 37 44 62 72 61 43 36 38 39 40 45 45 48 61 76 84 88 91 90 87 88 91 94 91 82 74 68 65 64 61 62 64 64 64 60 57 57 63 79 95 103 106 104 100 92 82 79 78 72 61 51 42 34 29 34 43 34 22 46 88 105 105
72 72 76 85 79 63 56 54 50 48 48 50 49 49 56 59 57 61 68 74 78 81 78 71 66 63 61 62 68 77 71 53 42 42 41 41 41 41 44 46 46 45 43 43 48 52 52 53 57 64 69 72 73 78 87 94 96 91 81 69 63 59 58 63 67 69 70 68 65 63 59 56 63 78 95 104 104 103 99 91 85 82 77 70 59 50 42 32 30 42 45 26 26 67 101 100 99
64 68 76 76 65 58 60 59 55 53 50 51 50 47 53 59 63 71 78 78 75 77 81 78 72 66 63 61 63 71 72 55 42 43 44 43 45 46 45 45 49 51 50 52 55 56 60 63 62 64 68 73 82 92 97 94 86 74 64 59 58 60 62 68 76 78 79 78 72 66 62 58 61 71 87 99 101 100 96 90 87 83 78 70 57 49 42 30 35 51 44 31 50 89 103 98 101
64 66 68 63 56 53 53 50 49 45 42 45 46 45 55 63 70 79 82 81 78 76 81 84 78 71 66 63 61 65 67 57 45 44 46 48 51 54 56 56 58 61 62 62 62 65 71 73 74 76 80 90 99 96 84 74 67 60 57 58 59 63 67 69 73 74 76 81 81 75 68 61 59 65 77 90 94 93 90 88 88 85 80 70 56 49 41 31 42 59 54 56 83 101 100 102 106
68 69 68 67 64 61 57 51 46 42 38 39 38 42 55 60 65 76 80 80 80 77 79 86 88 82 73 67 66 68 69 64 56 50 48 52 56 58 61 65 66 68 70 70 71 76 83 85 88 91 95 103 99 82 69 65 61 56 55 57 58 61 67 69 69 69 71 77 82 83 77 67 61 61 68 81 88 89 87 88 89 87 80 68 55 49 40 34 50 70 76 86 100 101 100 106 107
Wind_Speed
80 78 76 76 75 75 74 75 75 74 72 70 68 67 65 66 66 66 69 74 74 70 66 65 66 65 64 63 62 62 64 65 63 61 60 60 59 58 57 56 56 55 54 53 52 50 47 45 45 45 45 46 46 45 45 44 44 45 46 44 43 42 43 45 46 46 46 47 46 45 44 43 44 45 44 42 40 40 41 42 40 38 37 35 33 32 33 34 33 30 28 29 28 28 27 26 25
83 80 77 76 75 74 73 74 74 72 71 70 67 66 65 66 67 69 72 75 74 69 67 67 67 67 67 66 65 66 67 67 64 62 63 62 60 59 58 57 55 54 54 53 51 49 47 46 46 47 47 47 45 44 44 44 44 45 44 42 42 44 46 45 45 46 47 47 45 44 42 43 45 44 42 40 39 40 42 41 37 35 35 34 32 32 34 33 32 29 28 28 28 27 26 26 25
85 83 80 77 75 74 73 73 72 69 68 66 63 63 65 68 72 74 73 73 73 70 69 67 65 66 67 67 67 68 68 67 66 64 64 63 60 59 57 56 55 53 53 52 50 49 48 48 48 47 46 45 44 44 44 44 44 43 42 42 45 46 45 44 45 46 46 46 45 42 42 44 45 42 40 38 38 40 42 39 34 33 33 32 32 32 33 33 31 30 29 28 27 26 26 25 24
88 86 84 81 78 75 73 71 70 67 65 63 62 64 66 70 73 73 71 69 69 69 68 65 63 63 64 67 69 69 68 67 66 65 64 61 59 58 56 55 54 53 52 51 50 49 48 48 47 45 44 43 43 43 43 43 42 42 44 46 47 45 44 44 46 46 45 45 43 41 43 45 43 40 38 37 39 42 41 36 32 32 32 32 32 32 31 31 31 30 29 28 26 26 26 25 24
90 89 88 86 83 79 75 71 69 66 64 65 66 68 69 71 70 68 67 65 64 65 65 62 60 61 63 67 69 68 67 67 66 65 63 60 58 57 56 55 54 53 52 51 49 48 47 46 45 43 42 42 42 43 43 43 43 45 46 46 44 43 44 46 46 45 45 44 41 42 44 43 40 38 37 37 40 42 40 35 32 32 32 33 32 30 30 30 30 30 29 27 26 26 26 25 23
92 91 90 90 88 85 81 76 73 70 71 72 69 70 71 70 68 65 64 63 62 62 62 61 61 62 65 68 68 67 65 64 65 64 62 61 60 59 58 57 55 54 52 50 48 47 46 45 43 42 42 42 42 43 44 44 45 45 45 43 43 45 46 45 44 44 44 42 41 43 43 41 38 37 36 38 41 41 38 35 33 32 33 33 32 30 29 28 29 29 28 27 27 27 27 25 23
93 93 92 91 89 88 86 83 80 79 80 78 74 73 71 69 68 65 63 64 63 63 63 63 63 65 67 67 66 64 62 63 65 65 64 63 62 61 60 57 55 53 50 48 47 46 45 43 42 42 42 42 43 44 44 44 44 44 44 44 46 46 45 44 44 44 41 41 42 43 41 39 37 36 37 39 40 39 37 35 33 33 32 32 31 29 28 28 28 29 28 28 28 28 28 26 22
92 93 93 92 90 88 86 85 84 84 85 84 81 78 75 72 70 67 65 64 64 63 63 63 65 66 67 65 63 61 61 63 65 65 65 64 63 61 59 56 53 50 47 46 46 45 44 43 42 42 43 43 44 44 43 43 44 45 45 46 46 45 44 44 44 42 41 41 43 42 41 39 37 36 37 39 40 38 37 36 34 33 32 31 30 30 29 28 28 29 29 28 28 27 27 25 21
88 89 91 91 89 88 86 84 84 85 87 88 86 83 81 78 74 72 69 67 66 64 63 64 65 66 65 63 62 61 61 62 65 65 65 64 62 59 56 53 50 47 46 46 45 44 43 42 42 42 43 43 43 43 43 44 45 45 46 46 45 44 44 45 44 42 41 42 42 41 40 38 37 37 38 40 39 37 37 37 35 34 32 31 30 30 29 28 29 29 29 28 27 26 26 22 19
81 83 85 86 86 85 83 83 84 87 88 88 87 85 84 82 80 78 74 71 70 68 68 68 68 68 66 63 62 62 62 63 65 66 65 63 60 57 53 51 49 47 47 46 45 43 42 42 42 42 42 43 43 43 44 44 45 45 45 45 45 45 45 44 42 41 42 42 42 41 39 38 38 38 39 40 39 37 37 36 35 34 32 31 30 30 30 29 29 29 29 28 26 25 24 20 18
74 76 78 79 79 78 79 81 84 86 86 86 86 85 85 84 82 80 77 74 72 71 72 73 73 71 68 65 64 65 65 66 68 68 66 62 58 55 52 50 49 48 46 45 43 42 41 41 41 42 42 43 43 43 44 44 45 45 45 45 45 45 43 41 40 41 41 42 41 40 39 38 39 39 40 40 38 37 36 35 34 33 33 32 30 29 29 29 29 29 29 28 25 24 22 19 17
69 70 72 72 72 73 74 77 79 81 81 81 83 84 84 83 81 80 79 76 74 73 74 75 75 73 69 67 67 67 67 68 70 68 64 59 55 52 50 48 47 46 44 43 41 41 41 41 41 42 42 42 43 43 44 45 45 45 45 45 44 42 40 39 40 41 41 40 40 40 39 38 39 40 41 40 38 37 36 35 34 33 33 33 31 28 28 29 29 29 29 27 25 23 21 19 16
66 66 67 67 67 68 69 71 73 74 75 78 80 81 80 80 78 78 78 76 73 73 75 76 74 70 68 67 67 66 65 66 66 61 58 54 52 50 48 46 45 44 42 41 40 40 40 40 41 41 42 42 43 44 44 45 45 45 44 42 41 40 39 39 40 40 39 39 40 40 39 39 40 41 41 40 38 37 36 35 34 34 34 33 32 29 28 28 29 28 28 26 24 23 21 18 16
65 64 63 63 64 65 66 68 69 71 72 75 76 75 75 75 74 74 72 71 70 70 72 72 68 65 63 63 63 62 61 60 58 55 53 51 49 47 45 44 43 42 41 40 39 39 40 41 41 41 42 43 44 44 45 45 44 43 41 40 40 39 38 38 38 38 38 39 41 41 40 40 41 41 42 40 38 38 37 36 35 34 34 33 32 30 28 28 28 28 26 25 25 23 20 18 16
65 63 62 62 62 63 65 67 68 69 70 71 70 70 69 69 69 67 66 64 64 64 66 66 64 60 59 58 57 57 56 55 53 52 51 49 47 45 44 44 43 41 40 40 39 40 40 41 41 41 42 44 44 45 45 45 43 41 40 40 39 38 37 37 37 38 40 41 41 40 40 41 42 42 42 40 39 39 37 36 35 34 34 33 32 31 28 27 28 28 26 25 25 23 20 18 16
66 64 62 62 63 64 66 67 67 67 67 67 66 66 65 65 64 62 61 60 58 59 61 61 60 56 53 53 53 53 54 52 51 51 50 48 47 46 45 44 43 42 40 40 40 41 41 41 41 42 43 45 45 45 45 44 42 41 41 40 38 38 38 38 39 40 40 40 40 40 41 42 43 43 42 41 40 39 37 36 36 34 33 32 32 30 28 28 28 27 26 25 24 23 20 18 16
67 64 63 64 66 67 67 66 65 64 65 64 64 63 62 62 61 59 58 56 54 55 57 57 55 51 49 50 52 52 51 50 49 49 48 47 47 46 46 44 43 42 41 41 42 42 42 42 42 43 44 45 45 45 44 43 42 41 40 38 38 38 39 39 39 39 39 39 40 40 41 43 43 43 43 42 41 40 38 37 36 35 33 32 31 29 28 28 27 27 26 25 24 23 21 18 17
68 66 66 67 69 70 69 66 64 63 63 63 62 61 60 59 58 56 55 53 51 53 54 52 50 49 48 50 52 51 50 49 48 47 47 47 47 46 46 44 43 42 41 42 42 42 42 42 42 43 44 44 43 42 41 41 41 41 40 39 39 39 38 39 38 37 38 39 40 40 42 44 44 44 43 42 42 41 39 38 37 36 35 33 31 30 29 29 28 27 26 26 25 23 21 19 18
69 69 69 71 73 72 69 66 64 64 63 62 60 59 57 56 55 54 53 51 50 52 52 50 49 48 48 50 51 51 50 48 47 47 47 47 47 46 45 44 43 42 42 42 42 42 42 41 42 43 43 43 41 41 41 42 42 41 41 40 40 39 38 38 37 38 38 39 40 41 43 44 44 44 44 43 42 41 41 40 38 37 37 35 32 30 29 29 29 27 27 26 25 23 21 20 19
72 71 73 75 75 72 69 67 66 65 64 62 60 58 56 55 54 52 52 51 50 51 53 51 50 49 48 49 51 51 49 47 47 47 47 47 47 46 44 43 42 42 42 42 42 42 42 41 42 42 43 42 42 42 42 43 43 42 41 41 40 38 37 37 38 38 38 38 40 42 43 43 43 44 44 44 43 42 42 41 40 39 39 37 34 31 30 29 29 28 27 26 26 24 22 21 20
74 74 77 78 76 73 70 69 68 66 65 63 61 58 56 55 53 52 52 51 50 51 54 53 52 50 49 49 50 50 48 47 47 47 47 47 47 46 44 43 42 42 41 42 42 42 41 41 42 43 43 43 43 43 43 43 43 42 40 39 37 36 36 37 38 37 37 38 41 42 42 43 43 43 44 45 44 43 43 43 43 42 41 39 36 33 31 28 28 27 26 25 25 24 23 22 21
75 76 80 79 76 75 73 70 69 67 65 64 62 59 57 56 55 53 52 52 51 53 55 55 53 52 50 49 49 49 48 47 47 47 47 47 46 45 44 43 42 41 42 42 43 42 42 42 42 43 43 43 43 43 43 43 43 42 40 37 35 35 36 38 37 35 36 39 41 42 43 44 43 43 44 45 44 44 44 44 45 44 42 39 36 33 31 29 26 25 25 25 26 25 24 23 23
74 78 81 79 78 77 74 72 70 69 67 65 63 61 59 57 56 54 53 53 53 54 56 55 53 52 50 49 48 48 49 48 47 47 47 46 45 45 44 44 43 43 42 43 43 43 42 42 43 43 43 43 43 42 43 43 43 42 40 36 35 36 37 37 35 34 37 39 41 42 44 44 43 43 44 44 44 44 44 45 46 45 43 40 36 34 32 31 29 27 26 26 27 27 26 25 24
71 76 79 78 78 77 74 73 72 70 69 67 65 63 61 59 57 56 55 55 55 56 57 55 52 51 49 49 48 49 49 49 48 47 47 46 46 46 45 45 44 43 43 43 44 43 43 43 43 43 43 43 43 43 44 44 42 40 38 37 36 36 37 36 35 36 38 40 41 43 45 44 43 44 43 43 43 43 45 46 46 45 42 39 35 34 33 32 33 33 32 30 29 28 27 25 25
67 72 76 76 77 76 75 74 73 72 70 69 67 64 62 60 59 57 57 58 57 57 58 55 52 51 49 49 50 50 51 50 49 48 48 48 48 47 47 46 45 44 44 44 44 44 44 44 44 44 44 43 43 43 43 42 40 39 38 37 36 36 37 37 37 38 39 40 42 44 44 44 44 44 42 41 42 43 45 46 46 44 41 38 34 33 32 32 32 33 34 32 30 28 26 26 25
64 69 72 72 73 73 73 73 72 72 71 70 68 66 65 63 61 60 59 60 59 59 58 56 53 52 51 51 52 52 52 51 51 50 50 50 49 48 48 47 46 46 45 46 46 45 45 45 44 44 44 43 42 42 42 41 40 39 39 38 37 38 38 38 38 39 40 41 43 44 44 45 46 44 41 40 40 42 45 45 45 43 40 37 34 32 31 30 30 30 31 31 30 28 26 26 26
64 68 69 68 68 68 69 70 70 71 71 70 70 68 67 65 64 62 62 62 62 60 59 57 55 54 53 53 54 54 54 53 52 52 52 51 50 50 49 49 48 47 47 47 47 46 46 45 45 44 44 43 43 43 43 43 42 41 40 40 40 40 40 39 39 40 41 42 43 44 44 46 46 43 40 40 39 42 44 45 45 43 40 36 33 31 30 29 28 28 28 29 30 28 26 26 27
64 66 66 65 65 63 63 65 66 67 68 69 70 69 68 67 66 65 65 64 64 61 59 58 56 56 55 54 55 56 55 54 53 53 53 52 51 51 50 50 49 48 48 48 48 47 47 46 45 45 45 44 44 45 45 44 44 43 43 42 43 42 42 41 41 41 42 42 43 44 46 47 45 42 40 39 39 41 43 44 44 43 40 36 32 30 29 28 27 26 26 27 29 29 27 25 27
64 65 64 63 62 59 59 60 61 63 65 67 68 69 69 69 69 68 68 67 65 63 61 59 58 58 57 56 57 57 56 55 55 54 54 53 52 52 52 51 50 49 49 49 49 49 48 48 47 47 46 46 46 46 46 46 46 45 45 44 44 44 43 42 42 42 42 42 43 44 46 46 43 41 40 39 39 41 42 42 43 42 40 36 31 26 25 26 26 25 25 25 27 28 27 24 25
65 65 63 62 60 56 55 56 56 57 60 63 65 67 69 71 71 71 71 69 67 65 62 61 60 59 59 58 58 58 57 56 56 56 55 54 54 53 53 52 51 51 51 51 51 50 50 49 49 48 48 47 47 47 47 47 47 47 47 46 46 45 44 43 42 42 42 42 43 44 45 44 43 41 40 39 39 41 42 42 42 42 39 36 31 24 21 24 24 24 25 26 26 27 26 23 23
64 64 63 62 59 56 56 55 54 54 56 58 60 63 68 71 72 72 72 71 69 67 65 63 62 61 61 60 60 60 59 57 57 57 56 56 55 54 53 53 52 52 52 52 52 52 52 51 50 50 49 49 49 49 48 48 47 47 48 48 46 45 45 43 42 42 42 42 43 44 44 44 43 42 41 38 38 40 42 43 43 42 39 35 31 25 24 27 26 26 26 27 28 27 27 25 24
62 62 62 62 59 59 58 56 55 54 55 56 56 59 64 69 70 70 71 71 70 69 67 66 65 64 63 63 63 62 60 59 59 59 59 57 56 55 54 54 54 54 54 54 54 53 53 53 52 51 51 50 50 49 49 49 48 48 49 48 46 45 44 42 41 41 41 42 42 43 44 44 44 43 41 38 38 39 41 43 44 43 40 34 29 24 24 26 27 28 29 29 30 30 29 28 27
59 59 60 60 60 62 61 58 57 57 56 55 55 56 61 67 66 65 67 68 69 69 68 67 67 66 65 65 65 64 62 61 61 61 60 58 57 56 56 55 55 55 55 55 55 55 55 54 53 52 52 52 51 50 50 50 49 49 49 48 46 45 43 42 42 41 41 41 41 42 43 44 44 43 41 38 37 39 41 42 44 43 38 31 26 23 22 23 23 24 27 29 32 32 31 30 30
55 55 57 59 61 64 63 60 59 58 57 56 55 56 61 65 61 59 61 62 63 65 65 66 66 66 66 67 66 65 65 64 63 63 61 60 59 59 58 57 56 56 57 57 57 56 56 55 54 54 53 53 52 52 51 50 49 48 48 48 47 46 45 44 44 43 42 41 40 40 41 42 42 42 40 38 37 39 40 41 42 39 33 26 24 23 22 22 21 20 22 25 29 32 31 31 31
53 54 57 60 62 64 64 63 62 60 59 57 57 57 62 64 57 54 56 56 57 59 61 61 62 64 66 67 67 66 66 65 64 63 62 61 61 60 59 58 58 58 57 58 58 57 57 56 55 55 54 53 53 52 51 50 50 49 49 50 49 49 47 46 46 45 44 43 41 41 41 41 41 41 40 38 37 38 38 40 38 32 27 24 25 26 26 25 23 21 19 21 25 30 30 30 30
52 54 57 60 62 62 62 63 63 62 61 59 58 59 64 63 55 53 52 52 53 54 55 55 57 61 63 65 66 65 65 65 64 64 63 62 61 61 60 60 59 58 58 58 58 58 57 56 56 55 54 54 53 52 51 51 50 50 50 50 50 49 47 46 45 45 45 44 43 43 42 41 41 41 40 38 37 36 36 35 30 26 24 25 27 29 30 30 30 27 22 19 21 28 30 30 31
53 53 55 57 58 59 60 61 62 62 60 59 60 62 65 61 55 53 51 49 50 50 49 49 53 57 58 60 61 61 62 62 63 63 62 62 62 61 61 60 59 58 58 58 58 57 56 56 55 54 54 54 53 53 52 52 51 51 50 50 50 49 48 47 47 46 45 44 44 44 43 41 41 42 41 39 36 34 33 30 27 26 27 28 30 31 31 33 35 35 31 23 20 25 30 32 32
55 53 54 54 54 57 59 59 59 59 57 58 61 64 64 60 56 54 51 49 49 48 47 48 51 53 53 55 55 55 57 58 59 60 60 61 61 61 60 60 59 58 58 57 57 56 55 55 54 54 53 53 53 53 53 53 52 52 52 52 51 51 51 51 51 49 48 46 45 44 43 42 42 43 41 39 36 34 32 30 29 30 31 33 34 35 34 33 35 38 38 33 25 23 29 34 34
57 55 54 52 52 55 56 56 56 55 54 57 61 63 62 61 58 55 52 50 50 49 47 49 51 51 51 52 51 51 52 53 54 55 56 57 58 58 58 57 57 57 57 56 56 55 54 53 53 52 52 53 53 53 53 53 53 53 53 54 54 54 54 54 53 51 49 47 46 45 44 43 43 43 41 40 38 34 33 33 33 34 35 36 36 37 37 36 35 36 40 40 33 26 26 33 36
58 56 54 52 53 55 54 55 54 52 53 58 61 61 60 59 57 54 52 52 52 50 49 50 52 51 52 51 49 48 48 48 49 51 52 53 54 55 55 55 55 55 55 54 54 53 52 52 51 51 52 52 53 53 53 53 53 53 53 53 54 54 54 54 53 51 49 48 47 47 45 44 44 42 41 41 40 36 35 35 36 36 37 36 38 40 41 41 38 35 37 42 41 33 27 29 35
58 57 55 55 56 55 55 55 52 50 54 57 58 57 56 55 53 51 52 52 52 51 51 51 52 52 52 50 49 47 46 46 46 48 49 50 51 52 52 52 53 53 53 52 52 51 51 51 51 51 52 53 53 53 53 53 53 52 52 52 52 52 52 53 52 50 48 47 47 47 45 44 43 42 42 42 41 38 36 36 36 36 36 38 42 44 45 46 43 39 36 39 44 42 34 28 32
57 57 57 58 59 58 57 54 50 50 53 56 55 53 52 51 50 50 50 50 51 51 51 51 51 53 52 50 49 48 46 46 46 47 48 48 49 49 49 50 51 51 50 50 50 51 51 51 52 52 53 53 53 53 53 52 52 51 51 51 51 51 51 52 52 51 50 48 48 46 44 43 43 43 44 44 42 39 37 37 37 37 39 43 45 47 48 48 47 45 41 39 42 45 41 33 30
56 57 59 62 62 60 58 55 52 51 53 55 52 50 49 48 47 47 47 48 48 49 50 50 51 52 52 51 50 48 47 47 47 47 47 47 47 47 47 48 49 49 49 49 49 50 51 52 52 52 52 52 52 51 51 51 51 50 50 50 50 50 51 52 52 51 50 49 48 46 44 42 42 43 44 45 44 42 41 40 39 41 43 45 46 48 49 49 49 48 47 44 43 44 45 40 32
55 58 62 64 63 61 60 57 54 54 55 53 49 48 47 44 44 44 43 44 44 45 45 46 48 50 51 50 49 47 47 47 48 47 46 45 44 44 44 45 46 47 47 48 49 50 51 51 51 50 50 50 50 49 49 49 49 49 49 49 49 49 50 51 51 50 49 48 47 46 45 44 43 44 44 45 46 45 44 43 42 44 45 46 46 48 49 50 50 49 48 48 47 45 46 46 38
56 61 64 64 64 63 62 60 58 58 57 52 49 48 45 42 42 40 39 39 38 39 41 44 46 48 48 48 47 47 47 49 49 46 44 42 40 39 39 41 43 45 46 48 49 49 50 49 49 49 48 48 47 46 46 46 47 46 46 45 45 46 46 46 46 47 46 45 45 46 47 46 45 45 45 45 47 46 45 44 45 46 47 47 47 48 49 49 51 51 49 48 48 47 46 48 44
60 66 65 64 65 64 64 62 60 60 56 51 49 48 44 42 41 38 36 36 36 37 40 43 44 45 45 45 45 46 47 49 47 44 42 37 33 32 34 39 43 46 47 48 48 48 47 46 46 45 45 44 42 42 42 42 42 42 41 40 40 40 40 41 41 41 42 42 42 44 46 47 47 47 46 46 46 46 46 46 46 47 48 48 48 49 50 50 51 52 51 48 47 46 45 46 47
65 67 65 65 65 65 65 63 63 61 55 50 50 49 47 44 41 38 35 34 35 37 40 42 42 43 43 44 45 46 47 47 45 43 38 30 26 26 29 34 41 48 50 48 47 46 44 43 42 41 40 39 38 37 37 38 38 37 37 37 37 37 37 38 39 40 39 39 39 41 44 46 47 47 47 47 47 47 46 46 47 48 49 49 50 51 51 51 52 52 52 48 44 43 42 44 47
66 65 63 64 64 64 63 62 62 59 52 50 51 51 49 46 43 40 36 34 34 36 39 40 41 42 43 43 45 45 45 44 43 40 34 28 30 33 31 27 30 42 48 45 44 44 41 40 39 38 37 36 35 34 35 35 36 36 37 37 37 37 37 38 39 39 40 40 40 41 43 45 46 47 47 48 48 48 47 46 47 47 48 49 49 52 52 53 53 52 51 47 41 39 39 41 45
64 63 63 62 62 62 60 58 57 52 49 51 53 51 49 47 45 43 39 37 36 36 38 39 40 42 42 41 42 42 43 42 39 35 31 31 36 40 39 35 33 40 43 40 40 41 39 39 38 37 36 36 36 36 36 36 36 36 37 37 38 38 38 38 38 39 39 40 40 41 43 44 46 47 47 48 48 47 47 47 47 47 47 48 49 51 53 53 53 52 50 45 39 36 37 38 42
60 60 59 58 58 57 53 52 49 45 47 52 52 50 48 47 46 44 41 40 39 37 37 38 40 40 40 39 40 41 41 39 36 33 32 34 37 41 44 42 42 49 49 43 41 41 39 39 37 36 36 36 36 36 37 36 35 35 36 36 38 38 39 39 39 39 39 38 39 40 41 43 44 45 46 46 46 46 46 46 46 47 47 47 49 51 53 53 52 52 49 43 37 34 35 37 39
60 59 58 56 53 51 50 49 45 43 47 51 51 48 45 44 44 43 42 41 39 38 38 38 39 39 38 39 40 40 39 37 34 34 35 35 35 39 44 46 47 51 52 47 44 42 40 38 36 36 35 34 34 35 35 35 34 35 35 35 37 38 40 40 41 41 40 39 39 38 39 41 42 43 43 43 43 43 44 45 45 46 47 47 48 50 52 52 52 51 47 41 36 33 35 36 36
61 62 59 54 50 51 53 51 47 45 49 52 49 45 42 42 43 43 42 41 39 39 39 39 39 39 39 39 40 40 39 37 35 36 36 34 33 35 43 50 52 50 49 47 44 41 39 37 36 35 34 33 34 34 34 34 34 35 35 35 37 39 41 42 42 42 42 41 40 39 39 40 40 41 41 41 42 42 43 44 45 46 46 47 48 50 52 52 52 49 44 39 34 31 34 35 35
62 61 54 50 54 58 57 52 49 48 51 51 46 42 40 41 42 42 41 41 41 40 40 40 40 40 40 40 41 41 40 39 38 38 38 37 36 36 40 47 50 49 47 44 42 40 38 37 37 35 34 34 34 34 35 35 36 36 35 35 37 39 41 43 44 44 44 43 42 41 41 40 40 40 40 41 41 42 42 43 44 44 45 46 47 49 51 51 51 48 42 37 31 30 34 35 34
62 57 51 55 63 61 54 50 49 48 48 46 42 38 38 41 42 40 40 41 41 41 41 41 42 42 42 42 43 43 43 42 41 39 38 38 40 39 40 43 45 44 43 41 39 39 38 37 37 36 36 35 35 36 36 36 36 36 35 36 38 40 41 43 44 45 45 44 42 41 41 40 40 40 40 40 41 42 42 43 43 43 43 44 46 48 49 51 50 45 40 33 26 29 33 34 33
60 57 58 63 63 55 49 48 46 44 43 42 39 37 38 39 39 38 40 41 42 43 43 44 44 45 45 45 44 43 44 44 42 39 38 39 40 40 40 42 43 41 40 39 39 39 38 37 37 37 36 36 36 35 35 35 35 35 37 38 40 41 41 42 43 43 43 43 42 41 40 40 40 40 40 40 41 41 42 42 42 42 42 42 44 46 48 49 47 42 35 26 21 29 33 33 32
59 59 62 63 58 53 51 50 47 45 43 41 39 37 36 37 37 39 41 42 43 45 45 47 47 47 46 45 45 44 45 46 43 39 38 39 39 39 39 41 42 40 39 39 39 39 38 37 37 36 35 35 34 33 33 34 35 37 39 41 42 42 41 41 41 41 41 41 41 41 40 40 40 40 40 40 40 41 41 41 41 41 40 41 42 43 46 46 44 38 28 18 20 28 32 32 31
59 60 60 58 55 53 52 50 48 47 44 42 41 38 37 38 39 41 42 43 45 46 46 48 48 47 46 46 46 45 45 46 44 40 39 39 39 38 38 39 40 40 40 41 40 39 38 37 37 36 35 34 33 32 34 35 37 39 41 41 40 40 40 40 40 41 40 40 40 40 41 40 40 40 40 41 41 41 41 40 40 40 39 39 40 41 43 43 40 32 20 15 19 27 31 31 30
59 60 59 58 55 53 51 48 45 45 43 42 41 40 40 41 42 43 43 44 46 47 47 48 49 49 48 48 48 47 46 47 46 43 41 41 40 39 39 40 40 40 41 41 40 39 38 37 36 35 34 33 33 34 36 37 38 39 38 37 35 36 37 38 39 40 40 40 40 40 41 41 40 40 40 41 41 41 40 39 39 38 38 38 37 38 39 39 36 26 15 16 21 26 30 30 30
Wind_Direction
250 251 251 252 252 253 254 255 255 255 256 256 258 259 259 260 261 265 266 266 268 270 272 274 275 277 278 279 281 281 280 281 283 285 286 287 289 290 291 292 292 293 295 296 296 296 296 295 294 294 294 295 295 296 295 294 295 296 296 296 296 298 301 303 303 304 304 306 307 309 311 312 314 316 317 317 318 320 322 322 320 315 315 318 317 315 317 318 320 321 321 321 319 317 312 307 301
249 249 250 251 252 252 253 254 256 256 257 257 258 258 257 258 260 262 265 267 269 271 272 273 275 276 277 278 279 279 278 280 282 284 286 287 289 290 291 291 292 293 294 295 295 295 293 292 292 293 294 295 294 294 293 292 294 295 296 297 298 299 301 301 302 303 304 306 307 309 311 313 316 317 317 317 320 323 324 324 320 317 318 319 317 316 317 318 319 320 321 322 322 322 319 313 306
248 249 249 249 250 251 252 253 255 256 257 257 257 256 255 257 260 261 264 268 270 271 271 272 274 275 277 277 277 277 278 280 283 284 286 288 289 289 290 291 292 292 293 293 293 292 291 291 292 293 294 293 293 292 291 291 293 295 297 298 299 299 299 300 302 303 305 306 308 309 311 314 317 317 317 318 322 325 326 326 323 321 321 320 318 318 319 318 319 319 321 323 324 326 324 319 312
248 248 249 249 249 249 250 252 253 254 255 253 251 251 253 257 261 263 265 268 270 271 271 272 273 275 277 277 277 278 280 282 283 285 286 287 288 288 289 290 291 291 291 291 291 290 290 291 292 292 292 291 291 290 290 291 293 295 297 298 298 298 299 300 302 303 305 307 308 309 313 316 317 317 317 319 324 325 326 326 324 325 324 322 320 320 321 319 318 318 321 323 325 329 329 324 317
247 248 249 249 249 249 249 250 251 252 251 249 248 250 253 257 260 261 264 266 268 270 271 272 272 274 275 276 278 280 281 283 283 284 285 286 286 287 288 289 290 290 290 290 290 290 290 291 291 290 290 289 289 290 291 292 293 295 296 296 297 297 299 301 302 303 305 306 307 310 315 317 317 317 318 321 324 324 325 324 322 326 326 325 323 323 322 319 317 317 320 322 325 330 332 327 320
247 248 249 249 249 249 250 250 250 250 250 248 248 250 253 256 257 258 261 263 264 266 268 270 271 273 273 275 277 279 281 282 282 283 284 285 286 286 287 288 289 289 290 289 289 289 289 290 289 288 288 288 288 289 290 291 293 294 295 295 297 298 299 300 301 304 305 305 307 312 316 317 316 317 319 321 324 323 323 322 320 323 324 326 326 325 322 319 317 316 318 321 324 330 333 330 323
247 248 249 249 250 250 250 251 252 252 252 251 250 251 253 255 256 256 258 260 262 264 266 268 270 271 272 274 276 278 280 281 281 283 284 285 286 287 288 288 289 289 289 288 288 289 289 289 288 287 286 286 286 288 289 291 292 292 293 295 297 298 298 299 302 304 304 305 308 313 316 315 315 317 320 321 323 322 321 321 320 321 323 326 329 327 323 319 316 315 317 320 324 330 334 332 328
247 248 249 250 250 251 251 252 253 254 254 253 252 253 253 255 256 257 257 259 261 263 265 267 268 269 271 273 275 278 279 280 281 283 284 285 286 287 287 288 288 288 287 287 287 288 288 287 286 286 286 286 287 287 288 289 290 291 293 294 296 297 297 299 302 303 303 306 309 313 315 314 314 317 320 321 323 322 321 321 321 320 321 325 330 329 324 319 315 314 316 319 323 330 335 336 334
247 248 249 250 251 252 252 253 254 254 254 254 254 255 255 256 257 257 257 259 260 262 263 265 267 268 271 273 276 277 278 279 280 282 283 284 286 286 287 287 287 286 286 286 287 287 286 285 285 285 285 286 286 287 287 288 290 291 293 294 295 296 297 299 301 302 303 307 310 313 314 312 313 317 319 321 322 321 321 322 320 319 319 322 328 329 324 317 313 312 314 318 323 329 336 341 341
247 248 249 250 251 252 253 253 254 254 255 255 255 256 257 257 257 258 259 259 260 261 263 264 266 268 271 273 275 276 276 277 279 280 282 283 284 284 285 285 285 284 284 285 285 285 284 284 284 284 285 285 285 286 287 288 289 291 292 293 295 296 297 299 300 301 304 307 310 312 312 311 311 315 318 321 321 320 320 321 319 317 317 319 324 326 322 315 311 310 313 317 321 328 336 342 345
248 248 249 250 250 251 252 252 253 254 255 256 256 257 257 258 259 260 261 261 262 262 263 264 266 268 270 272 273 274 275 276 277 279 281 282 282 282 282 283 283 282 283 283 283 282 282 282 283 283 284 284 284 285 286 288 289 290 291 293 295 296 298 299 300 302 304 307 309 311 311 310 311 315 318 320 320 319 320 321 319 316 315 317 320 322 320 313 309 308 310 315 317 325 334 339 344
247 248 249 249 250 251 251 252 253 254 255 255 256 256 257 258 259 260 260 261 262 262 263 264 266 268 270 271 272 273 275 276 277 279 280 280 280 280 281 280 280 280 281 282 281 280 281 281 281 282 283 283 284 285 286 287 289 290 291 293 294 296 298 299 300 302 305 307 309 311 311 310 312 315 318 319 319 319 319 320 318 315 314 315 316 317 318 312 307 306 308 311 313 321 330 335 339
246 247 248 249 250 250 251 252 253 254 254 254 255 256 256 257 258 259 259 260 261 262 263 264 266 268 270 271 272 273 275 276 277 277 277 277 277 278 279 278 279 280 280 280 280 279 279 279 279 280 281 283 283 284 285 287 289 290 291 292 294 296 298 299 301 303 305 307 310 311 310 310 313 315 318 318 319 319 318 319 317 314 312 312 313 312 314 311 306 303 304 305 308 317 325 330 333
246 247 248 249 249 250 251 251 252 252 253 254 255 256 256 257 258 259 259 260 261 262 263 265 266 267 269 270 271 272 273 274 275 275 275 275 276 277 277 277 278 278 278 279 279 278 278 278 278 279 281 282 282 283 284 286 288 289 290 291 294 297 299 300 302 304 306 308 309 309 310 311 313 315 316 317 318 319 317 317 316 313 310 309 309 308 308 307 304 301 300 300 302 311 319 324 326
246 246 247 248 249 249 250 250 251 252 253 254 255 256 256 257 258 258 259 260 261 262 263 264 265 266 267 268 269 270 270 271 272 272 273 274 274 275 275 275 275 276 276 277 277 277 277 277 278 279 280 281 281 282 283 286 288 289 290 291 293 297 299 301 302 304 306 307 307 308 310 311 313 314 315 316 317 318 317 316 315 313 310 308 307 304 301 301 301 299 297 295 297 304 312 317 320
245 246 247 248 248 249 249 249 251 252 253 254 255 255 256 256 257 258 259 259 260 262 262 263 264 265 266 267 266 266 267 268 269 270 270 271 272 273 273 274 274 274 274 275 275 276 276 277 278 279 279 280 280 281 283 285 287 289 291 291 292 296 298 299 301 303 305 306 306 308 309 311 313 313 314 315 316 316 316 316 315 313 312 311 308 302 296 294 296 296 295 292 292 298 306 310 313
245 246 247 247 248 248 248 249 250 252 253 254 255 255 255 256 257 257 258 259 260 261 261 262 263 264 264 264 263 264 266 266 267 268 269 270 270 271 272 272 272 272 272 273 273 274 275 276 277 277 278 279 280 281 283 285 287 289 291 291 293 297 297 298 301 302 303 304 305 307 309 311 311 312 313 314 315 315 315 315 314 313 313 314 313 305 294 289 291 293 293 289 288 293 300 305 308
245 245 246 246 247 247 247 249 250 251 253 254 254 255 256 256 257 257 258 258 259 260 260 261 261 261 261 261 262 264 265 265 266 267 268 269 269 269 269 270 270 271 271 272 272 273 273 274 275 277 278 279 280 281 283 284 287 289 291 291 294 297 297 298 300 301 302 303 304 306 309 310 310 311 313 313 314 314 314 314 314 313 313 314 313 308 297 288 288 290 289 286 285 289 295 301 304
244 244 245 245 246 246 247 249 250 250 252 253 254 255 255 256 257 257 257 257 257 259 260 259 259 258 259 260 262 263 264 265 266 267 267 267 267 267 268 269 270 271 271 271 271 271 272 273 274 276 278 280 280 282 283 285 287 289 290 292 294 296 297 297 298 299 301 302 303 306 308 309 310 311 312 312 313 313 314 314 314 313 313 313 311 307 300 290 286 287 286 284 284 287 291 296 299
244 244 244 245 245 246 247 248 248 249 250 251 252 253 254 255 256 256 256 256 256 257 258 257 257 256 257 258 260 262 264 265 265 266 266 266 266 266 267 268 269 270 269 269 269 270 271 272 274 276 278 280 281 282 284 285 287 288 290 293 294 295 294 295 296 298 299 300 303 305 308 308 309 311 311 311 312 312 314 315 314 313 312 312 308 303 299 292 286 284 284 282 282 284 288 293 294
243 243 244 244 245 246 246 246 247 248 249 251 251 252 253 254 254 254 255 255 255 255 256 256 256 256 255 257 259 262 263 263 264 264 264 265 266 267 267 268 268 268 268 268 269 269 271 272 274 276 278 279 281 282 283 285 287 289 291 293 294 293 292 293 294 296 297 300 302 305 307 308 309 310 310 311 312 313 314 315 315 314 312 310 307 299 294 291 285 282 282 280 280 283 286 290 291
243 243 244 245 245 245 245 246 247 248 249 250 251 251 252 252 253 253 253 254 253 253 254 255 255 255 255 256 259 261 261 261 262 263 264 265 266 267 267 267 267 267 268 268 269 270 271 272 274 275 277 278 279 281 282 285 287 289 291 292 293 292 292 293 293 294 296 299 302 305 307 307 308 309 310 311 312 314 315 315 316 316 315 311 306 297 288 284 281 279 280 280 279 281 283 285 286
243 244 245 245 245 246 246 246 247 247 248 249 250 250 250 251 251 252 252 253 252 252 253 254 255 256 257 257 258 259 260 260 261 262 263 265 266 266 266 266 266 266 267 268 269 270 271 273 273 274 276 276 278 280 283 284 286 288 288 289 292 291 291 292 291 293 296 299 301 304 306 306 307 309 310 311 313 314 315 317 318 318 317 313 307 298 288 279 275 275 278 280 280 279 280 280 279
243 245 246 245 246 246 246 246 247 247 248 248 249 249 249 250 250 251 251 252 251 251 253 254 255 257 258 258 258 258 259 260 260 261 262 263 264 264 264 264 265 265 266 268 269 270 271 272 273 274 275 276 278 281 282 284 286 286 286 287 290 288 289 289 289 292 295 298 301 303 305 304 307 309 310 311 312 314 316 319 320 320 319 315 308 301 293 282 276 275 277 280 280 278 276 275 275
244 245 246 245 246 246 246 246 246 247 247 248 248 249 249 249 250 250 250 251 251 251 252 253 254 255 256 257 257 257 257 258 259 259 260 260 261 262 263 263 264 265 266 267 268 269 270 271 272 273 275 276 278 280 282 284 284 285 284 285 288 288 288 288 288 291 294 298 301 303 303 304 306 308 309 310 311 314 318 321 322 323 321 317 311 304 298 289 282 279 278 278 278 275 271 270 271
244 245 245 245 246 246 246 246 247 247 248 248 248 248 249 249 249 249 249 250 250 250 251 252 252 253 253 254 255 256 256 257 257 257 258 259 260 261 262 263 263 264 265 266 267 268 269 270 271 273 274 276 277 279 282 283 283 284 284 284 286 287 287 287 288 291 294 298 301 301 302 303 305 307 308 309 311 315 319 322 324 325 324 320 315 309 304 297 288 281 278 276 273 269 266 266 268
244 245 246 246 246 246 246 247 247 247 248 249 249 249 249 249 249 249 248 249 249 250 250 251 251 252 252 252 253 254 255 255 256 257 257 258 259 260 261 262 262 263 264 266 266 267 268 269 271 272 273 275 276 278 281 283 282 283 285 283 284 286 286 287 288 290 294 298 299 300 301 302 304 305 307 308 311 316 320 323 325 327 326 323 320 314 309 303 293 283 276 272 269 265 261 263 267
243 245 246 246 246 246 246 247 247 247 247 248 248 248 248 249 249 248 248 248 249 249 250 251 251 251 251 252 253 253 254 255 256 257 257 258 259 259 260 261 262 263 264 265 266 267 268 269 270 271 273 274 275 277 279 281 281 282 284 283 282 285 285 286 288 290 293 296 297 298 300 301 302 304 306 308 311 316 320 323 326 327 327 325 322 319 315 309 301 287 275 270 267 265 260 259 264
242 245 246 247 247 247 247 248 247 247 247 247 247 247 247 247 248 248 248 247 248 248 249 250 251 251 251 252 253 253 254 254 255 256 257 258 258 259 260 261 262 263 264 265 266 266 267 268 269 271 272 273 274 276 278 279 279 280 283 283 282 284 286 286 288 289 291 293 295 297 298 300 301 303 306 308 311 316 319 322 325 327 326 325 324 325 319 309 303 292 278 270 268 267 263 258 261
241 243 245 247 248 248 248 248 248 247 247 246 246 246 246 245 246 246 247 247 247 248 248 249 250 251 252 252 253 254 254 255 255 256 257 257 258 259 260 261 262 263 263 264 265 266 267 268 269 270 272 273 274 276 277 277 278 278 281 283 282 283 285 287 287 288 290 292 294 296 297 299 300 302 305 307 310 314 317 320 323 325 326 325 325 324 310 295 292 290 279 269 266 267 267 263 261
239 241 243 245 247 246 246 245 245 245 245 245 245 245 245 244 244 244 246 246 246 247 247 248 249 250 251 252 253 253 254 254 255 256 256 256 257 258 260 261 262 263 263 264 265 266 267 268 269 270 271 272 273 274 275 276 276 278 280 282 281 282 285 286 286 287 288 290 292 294 296 298 300 301 303 305 307 311 315 318 322 325 326 326 325 320 306 295 288 283 277 269 264 264 267 267 265
239 240 242 244 245 245 244 243 243 242 242 242 242 243 244 244 243 244 245 246 246 246 246 247 248 249 250 252 252 253 254 254 255 256 256 256 257 258 259 260 261 262 263 264 265 266 267 267 268 269 270 271 272 273 274 274 275 277 278 280 280 281 283 284 285 286 287 288 291 294 296 297 298 299 301 302 304 309 313 317 322 325 326 326 326 320 307 300 293 284 276 268 263 261 261 263 265
239 239 241 242 242 243 242 242 241 241 240 240 240 240 242 244 243 244 245 246 247 247 247 247 248 248 249 251 252 253 254 254 255 256 257 257 258 258 258 259 260 261 263 264 265 266 267 268 268 269 270 271 272 272 273 273 274 276 277 278 279 280 282 283 284 285 286 287 291 294 296 297 297 297 298 298 301 307 312 318 323 324 323 324 326 323 312 305 299 289 279 269 262 260 259 258 260
239 238 239 240 239 240 241 240 240 240 240 240 240 240 242 245 245 245 246 247 248 249 248 248 249 249 250 250 251 252 253 254 254 256 257 258 258 258 259 259 260 261 262 264 265 266 266 267 268 269 270 270 271 271 272 273 274 274 275 276 278 279 280 281 282 283 284 286 290 294 297 297 296 295 295 294 299 307 313 319 322 321 320 324 327 327 322 314 306 295 283 271 260 257 259 258 255
237 236 236 237 237 238 239 238 238 238 239 239 239 241 244 247 247 246 246 246 247 248 248 249 249 250 250 250 251 251 252 253 255 256 257 257 258 259 260 260 260 261 262 263 264 265 266 267 268 269 270 270 271 271 272 273 273 273 273 274 277 278 278 279 280 282 283 284 287 292 296 296 294 292 291 291 298 308 314 319 320 320 321 325 326 326 325 322 315 305 289 275 259 250 252 255 253
235 235 235 236 237 238 238 238 237 237 238 239 239 240 244 247 247 247 246 246 247 248 249 249 249 249 249 249 250 251 252 253 254 255 256 257 258 259 259 260 260 261 262 263 264 265 266 267 268 269 269 270 270 271 271 272 272 272 272 272 275 276 276 278 280 281 282 283 286 290 293 294 291 289 288 291 299 308 313 318 319 319 321 322 321 320 320 319 318 313 302 285 264 249 246 248 248
235 235 236 238 238 239 239 239 238 238 239 239 240 240 244 247 247 247 247 247 248 249 250 249 248 248 248 248 249 250 251 252 253 254 255 256 256 257 258 259 260 260 261 262 263 264 265 267 267 268 269 269 270 270 270 271 271 271 271 271 273 274 275 278 280 281 282 284 286 288 291 291 288 287 289 291 298 304 309 313 312 311 312 312 311 311 311 312 311 311 306 298 278 255 244 242 243
234 235 237 238 239 239 239 239 239 239 239 239 240 241 244 246 246 246 247 247 248 248 248 247 247 248 248 248 249 249 250 251 252 253 253 254 255 256 257 258 259 260 260 261 262 264 265 266 267 268 269 269 270 270 270 271 271 271 271 271 272 275 276 278 279 280 281 283 285 286 288 288 287 287 289 290 294 299 303 305 301 300 301 301 302 301 301 303 304 304 302 299 291 270 248 238 238
233 234 236 238 239 240 240 240 239 238 238 238 239 240 241 243 244 245 247 247 248 247 246 246 247 248 248 248 248 248 249 250 251 252 253 254 255 255 256 257 258 259 260 261 262 264 265 266 267 268 269 270 270 271 271 271 271 271 271 271 273 275 277 278 278 279 279 280 282 284 285 286 286 287 287 287 292 295 296 297 294 293 295 296 298 299 298 297 298 298 296 295 293 286 266 244 235
232 234 236 237 239 240 240 239 238 237 237 238 239 239 240 242 244 245 246 247 248 248 247 247 249 249 249 250 250 250 251 251 252 253 253 254 255 255 256 256 257 258 259 261 262 263 265 265 266 267 268 269 270 271 272 272 272 272 272 272 273 275 276 277 277 278 277 277 279 281 283 285 286 287 286 286 290 292 293 294 294 294 296 299 301 302 301 297 295 294 291 291 291 289 283 261 241
232 233 235 236 238 238 238 238 237 236 237 238 239 240 241 242 244 243 244 245 246 247 246 247 248 249 250 251 251 251 250 251 252 253 253 253 254 254 255 256 257 259 260 261 262 263 264 264 265 266 267 268 270 271 272 273 273 273 273 274 274 275 276 276 276 276 276 276 277 279 281 283 285 287 286 286 289 291 292 293 295 297 297 300 302 302 301 297 294 293 290 288 288 288 286 275 252
231 232 234 235 236 237 237 237 236 236 237 239 239 240 240 240 240 240 241 242 243 244 245 245 246 248 248 249 249 249 249 248 249 250 251 251 253 254 256 257 258 259 260 261 261 262 262 263 264 265 266 267 269 270 272 273 273 274 274 275 275 276 276 276 275 274 274 275 275 277 279 282 284 286 285 285 288 288 288 290 292 294 295 297 299 300 299 296 292 290 289 286 286 286 285 280 267
229 230 232 234 235 235 237 237 235 235 237 238 239 239 239 238 239 239 239 240 241 242 243 244 245 247 247 247 248 248 247 246 246 246 248 250 252 254 256 258 259 261 261 261 261 262 262 263 264 265 266 268 269 271 272 273 274 275 276 276 276 277 276 276 276 275 274 273 272 273 276 280 283 284 283 284 285 284 285 287 288 290 293 295 297 298 298 296 291 286 284 284 282 282 282 278 277
228 229 231 233 233 234 235 235 234 234 235 236 237 238 237 237 238 238 238 240 241 243 244 244 244 245 247 247 247 246 246 246 245 244 247 250 253 257 260 263 264 265 265 263 262 262 262 263 264 265 266 268 269 271 272 273 275 276 277 277 277 277 277 277 276 275 274 273 271 271 273 276 279 281 282 282 282 283 285 287 288 290 293 295 296 297 297 297 294 290 286 284 280 277 276 274 275
227 229 230 231 232 232 233 233 233 233 235 235 236 237 237 236 236 236 236 237 239 240 241 241 241 242 244 245 246 246 245 246 246 247 249 252 257 263 269 272 272 271 268 266 264 263 263 263 265 266 267 268 270 272 273 274 275 276 277 278 278 279 279 279 278 277 276 274 272 270 271 273 275 278 281 282 282 284 286 287 290 292 294 295 296 297 298 298 298 296 293 290 284 275 270 269 268
226 228 228 230 231 231 231 232 233 234 235 235 237 238 237 236 235 234 233 233 234 235 237 238 239 241 242 244 245 246 246 247 249 249 250 254 263 274 280 280 278 275 270 267 265 264 264 265 265 267 268 270 271 273 274 275 275 275 276 278 279 281 282 282 282 281 279 278 275 273 271 272 274 276 279 281 282 284 286 289 291 293 295 296 297 298 299 300 300 299 299 295 287 277 267 262 262
226 228 228 229 231 231 231 232 233 235 235 236 237 238 237 236 236 234 232 231 232 233 236 237 238 239 240 240 242 243 245 247 248 248 249 252 257 264 272 277 279 276 269 265 265 264 264 265 265 266 268 269 271 273 273 273 272 273 275 276 278 281 282 283 283 283 282 282 279 276 274 274 274 275 277 279 281 283 285 289 291 293 295 296 298 300 300 301 301 301 301 297 287 276 264 256 255
226 228 229 230 232 233 233 233 235 236 236 236 238 238 238 238 238 236 233 231 231 233 236 238 238 239 239 239 241 243 245 246 247 247 246 240 234 232 232 240 256 265 264 261 261 263 263 264 264 265 267 268 269 271 272 272 271 272 273 275 277 280 281 282 283 283 283 283 281 278 276 274 274 275 276 277 279 282 284 287 290 292 294 297 299 301 302 302 302 303 303 299 287 272 260 251 248
227 229 230 231 233 235 236 236 237 238 237 238 239 239 239 239 239 237 234 231 230 232 236 238 239 239 240 241 242 244 245 245 246 246 240 231 229 227 223 221 229 244 254 259 259 260 261 262 264 265 266 267 268 271 273 273 272 273 274 275 278 280 281 282 284 285 285 285 283 281 278 275 274 274 275 277 278 281 283 285 287 290 292 296 299 301 302 303 304 306 305 299 286 268 254 247 243
231 233 234 234 236 238 240 239 239 238 238 239 239 239 238 238 238 237 234 232 231 231 234 237 239 240 241 242 243 243 243 243 243 241 235 229 228 229 228 227 230 238 249 258 259 259 260 261 263 265 266 268 270 272 273 273 273 274 276 278 281 282 283 284 286 286 286 286 286 283 280 277 275 274 274 276 277 279 281 283 286 289 292 296 299 301 303 304 306 307 305 297 285 264 247 242 240
230 232 234 235 236 239 240 239 237 234 236 238 238 237 236 236 237 236 234 232 231 232 234 236 238 239 240 242 243 244 242 241 238 237 235 231 230 233 232 230 234 241 248 255 259 259 260 262 264 266 267 269 271 272 273 274 275 277 279 282 284 285 285 286 287 287 287 287 287 285 283 280 277 275 275 276 277 278 280 283 286 290 293 296 300 302 303 305 307 308 303 295 282 259 240 237 237
227 229 231 232 234 236 236 234 231 229 232 234 234 233 232 233 234 233 232 231 231 232 234 235 236 237 237 239 241 243 242 240 236 233 233 229 227 233 238 236 239 246 251 254 258 259 259 261 263 264 266 269 271 273 274 276 277 279 282 284 285 285 286 287 287 288 288 288 288 287 285 282 279 277 276 275 276 277 279 283 286 289 293 297 301 303 304 306 308 308 302 293 279 252 233 232 234
228 230 232 232 233 232 232 231 230 229 231 233 232 229 229 231 232 231 230 229 228 230 233 234 234 234 235 237 239 241 242 239 236 234 232 229 224 226 236 241 242 247 251 253 256 258 259 260 262 263 267 269 272 273 275 277 279 281 284 284 284 285 286 287 287 288 288 288 288 287 286 283 280 277 276 275 276 277 280 283 286 290 294 298 301 304 306 307 310 309 302 293 274 242 226 227 232
226 228 229 230 232 231 230 230 229 228 230 232 231 228 228 230 231 230 230 230 229 229 231 233 234 234 234 235 237 240 241 239 236 234 233 233 231 229 236 245 247 247 250 253 256 259 260 260 262 264 266 268 270 272 274 277 279 281 283 283 284 285 286 287 287 287 287 287 287 287 286 283 280 278 277 277 277 279 281 284 287 291 295 299 302 305 307 310 311 310 304 293 263 228 220 223 229
223 224 225 228 231 231 230 231 230 229 230 231 230 227 227 230 231 231 231 231 230 229 230 232 233 233 234 234 235 237 239 240 237 236 236 236 237 237 238 245 250 251 252 254 256 258 260 260 261 262 264 267 269 272 275 277 278 280 282 283 284 285 286 286 286 287 287 287 287 286 285 283 281 279 278 278 278 280 282 285 288 292 295 299 303 306 309 311 313 312 306 290 245 217 216 219 225
221 222 224 226 227 226 227 228 228 228 228 229 229 228 228 230 232 233 232 232 232 231 230 232 234 234 235 236 237 237 240 242 240 237 239 240 240 241 241 244 249 252 254 255 256 257 258 259 260 261 263 266 269 272 275 277 279 281 283 284 285 285 285 284 284 286 287 287 287 286 285 284 281 280 279 278 279 280 282 285 288 292 295 299 303 306 310 312 314 313 305 276 228 212 213 217 222
221 223 226 228 228 227 227 227 227 228 227 227 228 227 227 229 231 232 232 232 233 233 232 234 236 238 238 239 240 241 242 246 244 241 240 241 241 242 242 244 247 250 252 254 255 256 257 259 260 262 264 267 269 273 276 278 280 282 284 286 287 286 285 284 284 286 287 287 287 286 285 284 283 281 280 279 279 280 282 285 288 292 295 299 302 306 311 313 315 313 297 252 220 210 211 217 221
222 224 226 229 230 231 231 232 233 235 234 232 231 229 228 228 229 230 232 232 232 233 233 234 235 237 238 239 240 241 242 244 245 243 241 242 242 242 243 245 247 249 251 253 254 256 258 260 262 264 265 267 269 272 275 277 280 283 285 286 289 290 289 288 289 290 289 287 286 286 285 285 284 283 281 280 280 280 282 285 288 291 294 298 302 306 311 314 314 310 281 234 219 213 213 218 221